Погода в Чингисе

Россия / Новосибирская область     54°07′31″N   81°37′13″E
темп.,
°C
ветер,
м/с
пор.,
м/с
влажн.,
%
обл.,
%
осадки,
мм/ч
давл.,
гПа
погр.,
м
23 апреля, пт
пт2301:00−1ссв39730 0.0 1044242
04:00−2ссв39895 0.0 1044211
07:00−2ссв38915 0.0 1044252
10:00+3ссв57605 0.0 10441011
13:00+6св683999 0.0 10432165
16:00+8св6833100 0.0 10412430
19:00+6всв583862 0.0 10411697
22:00+3ссв5105955 0.0 1041325
24 апреля, сб
сб2401:00+1ссв39785 0.0 1040221
04:00−1ссв38875 0.0 1039173
07:00−1с388823 0.0 1038216
10:00+4ссв56587 0.0 10371181
13:00+7ссв453721 0.1 10351922
16:00+9с45305 0.0 10332242
19:00+9ссз443495 0.0 10332048
22:00+5ссз345123 0.0 103373
25 апреля, вс
вс2501:00+3ссв226210 0.0 103321
04:00+2с11694 0.0 103310
07:00+2сз00695 0.0 103310
10:00+7ююз114839 0.0 1033598
13:00+10ююз223741 0.0 10311651
16:00+11ю223199 0.0 10301992
19:00+11ю2233100 0.0 10291538
22:00+7ю2246100 0.0 103033
26 апреля, пн
пн2601:00+6ююв355998 0.0 102996
04:00+5ююв2562100 0.0 102994
07:00+3ююв376459 0.0 1029145
10:00+8ююв584671 0.0 1028794
13:00+12ююв67355 0.0 10261394
16:00+13ююв6728100 0.0 10241591
19:00+13ююв583233 0.0 10221449
22:00+9ююв5134631 0.0 1020303
27 апреля, вт
вт2701:00+9ююз4867100 0.3 1019203
04:00+8з410741 0.1 1019250
07:00+6з4106685 0.1 1021224
10:00+11з57455 0.0 1021873
13:00+14з6835100 0.0 10212110
16:00+14з5732100 0.0 10201964
19:00+13зюз3638100 0.0 1020810
22:00+11юз3745100 0.0 1019216